• In Deutschland
  • Länderverzeichnis
  • Für 7 Tage
  • Wassertemperatur
  • Satellitenkarten
  • Wetterkarte
  • Widgets
  • user-avatar
    Anmelden

    Stündliche Wetter Bridel

    Heute, 26 September, Dienstag

    Zeit Temperatur Niederschläge Wind Luftdruck Luftfeuchtigkeit
    00:00 +10°C° 0 mm 1 m/S 735 mmHg 90%
    01:00 +10°C° 0 mm 1 m/S 734 mmHg 91%
    02:00 +10°C° 0 mm 1 m/S 734 mmHg 91%
    03:00 +10°C° 0 mm 1 m/S 734 mmHg 91%
    04:00 +10°C° 0 mm 1 m/S 735 mmHg 91%
    05:00 +10°C° 0 mm 1 m/S 735 mmHg 92%
    06:00 +10°C° 0 mm 1 m/S 735 mmHg 92%
    07:00 +12°C° 0 mm 1 m/S 735 mmHg 85%
    08:00 +14°C° 0 mm 1 m/S 736 mmHg 79%
    09:00 +16°C° 0 mm 1 m/S 736 mmHg 72%
    10:00 +18°C° 0 mm 1 m/S 736 mmHg 69%
    11:00 +19°C° 0 mm 1 m/S 736 mmHg 65%
    12:00 +20°C° 0 mm 1 m/S 736 mmHg 62%
    13:00 +20°C° 0,1 mm 1 m/S 736 mmHg 62%
    14:00 +20°C° 0,1 mm 1 m/S 736 mmHg 62%
    15:00 +20°C° 0,1 mm 1 m/S 735 mmHg 62%
    16:00 +16°C° 0,1 mm 0 m/S 735 mmHg 69%
    17:00 +14°C° 0,1 mm 0 m/S 735 mmHg 76%
    18:00 +12°C° 0,1 mm 0 m/S 735 mmHg 82%
    19:00 +12°C° 0 mm 0 m/S 736 mmHg 84%
    20:00 +11°C° 0 mm 0 m/S 736 mmHg 86%
    21:00 +11°C° 0 mm 0 m/S 736 mmHg 88%
    22:00 +11°C° 0 mm 0 m/S 736 mmHg 88%
    23:00 +10°C° 0 mm 0 m/S 736 mmHg 89%

    Morgen, 27 September, Mittwoch

    Zeit Temperatur Niederschläge Wind Luftdruck Luftfeuchtigkeit
    00:00 +10°C° 0 mm 0 m/S 736 mmHg 90%
    01:00 +10°C° 0 mm 0 m/S 736 mmHg 90%
    02:00 +11°C° 0 mm 1 m/S 736 mmHg 91%
    03:00 +10°C° 0 mm 1 m/S 736 mmHg 91%
    04:00 +10°C° 0 mm 1 m/S 736 mmHg 92%
    05:00 +10°C° 0 mm 1 m/S 736 mmHg 92%
    06:00 +10°C° 0 mm 1 m/S 736 mmHg 92%
    07:00 +12°C° 0 mm 1 m/S 736 mmHg 87%
    08:00 +14°C° 0 mm 2 m/S 737 mmHg 83%
    09:00 +15°C° 0 mm 2 m/S 737 mmHg 78%
    10:00 +16°C° 0 mm 2 m/S 737 mmHg 74%
    11:00 +18°C° 0 mm 2 m/S 736 mmHg 70%
    12:00 +19°C° 0 mm 2 m/S 736 mmHg 66%
    13:00 +19°C° 0 mm 2 m/S 736 mmHg 66%
    14:00 +19°C° 0 mm 2 m/S 736 mmHg 67%
    15:00 +19°C° 0 mm 2 m/S 736 mmHg 67%
    16:00 +18°C° 0 mm 2 m/S 736 mmHg 74%
    17:00 +16°C° 0 mm 1 m/S 736 mmHg 80%
    18:00 +14°C° 0 mm 1 m/S 736 mmHg 87%
    19:00 +14°C° 0 mm 1 m/S 736 mmHg 88%
    20:00 +14°C° 0 mm 1 m/S 736 mmHg 89%
    21:00 +13°C° 0 mm 1 m/S 736 mmHg 90%
    22:00 +13°C° 0 mm 1 m/S 736 mmHg 90%
    23:00 +13°C° 0 mm 1 m/S 736 mmHg 91%

    übermorgen, 28 September, Donnerstag

    Zeit Temperatur Niederschläge Wind Luftdruck Luftfeuchtigkeit
    00:00 +12°C° 0 mm 1 m/S 736 mmHg 91%
    01:00 +12°C° 0 mm 1 m/S 736 mmHg 91%
    02:00 +12°C° 0 mm 1 m/S 736 mmHg 91%
    03:00 +12°C° 0 mm 1 m/S 736 mmHg 90%
    04:00 +12°C° 0 mm 1 m/S 736 mmHg 91%
    05:00 +12°C° 0 mm 1 m/S 736 mmHg 91%
    06:00 +12°C° 0 mm 1 m/S 736 mmHg 92%
    07:00 +14°C° 0 mm 2 m/S 736 mmHg 86%
    08:00 +15°C° 0 mm 2 m/S 737 mmHg 81%
    09:00 +17°C° 0 mm 3 m/S 737 mmHg 76%
    10:00 +18°C° 0 mm 3 m/S 737 mmHg 73%
    11:00 +19°C° 0 mm 3 m/S 737 mmHg 70%
    12:00 +20°C° 0 mm 3 m/S 737 mmHg 67%
    13:00 +20°C° 0,1 mm 3 m/S 737 mmHg 70%
    14:00 +19°C° 0,1 mm 3 m/S 737 mmHg 73%
    15:00 +19°C° 0,1 mm 2 m/S 737 mmHg 77%
    16:00 +17°C° 0,1 mm 2 m/S 737 mmHg 81%
    17:00 +16°C° 0,1 mm 1 m/S 737 mmHg 86%
    18:00 +15°C° 0,1 mm 1 m/S 737 mmHg 90%
    19:00 +14°C° 0 mm 1 m/S 737 mmHg 91%
    20:00 +14°C° 0 mm 1 m/S 737 mmHg 91%
    21:00 +13°C° 0 mm 1 m/S 737 mmHg 92%
    22:00 +12°C° 0 mm 0 m/S 737 mmHg 93%
    23:00 +12°C° 0 mm 0 m/S 737 mmHg 93%

    29 September, Freitag

    Zeit Temperatur Niederschläge Wind Luftdruck Luftfeuchtigkeit
    00:00 +11°C° 0 mm 0 m/S 737 mmHg 93%
    01:00 +11°C° 0 mm 0 m/S 737 mmHg 94%
    02:00 +11°C° 0 mm 0 m/S 737 mmHg 94%
    03:00 +11°C° 0 mm 0 m/S 737 mmHg 95%
    04:00 +11°C° 0 mm 0 m/S 737 mmHg 95%
    05:00 +11°C° 0 mm 0 m/S 737 mmHg 95%
    06:00 +10°C° 0 mm 0 m/S 737 mmHg 95%
    07:00 +12°C° 0 mm 0 m/S 737 mmHg 91%
    08:00 +15°C° 0 mm 1 m/S 737 mmHg 86%
    09:00 +18°C° 0 mm 1 m/S 737 mmHg 82%
    10:00 +19°C° 0 mm 1 m/S 737 mmHg 76%
    11:00 +20°C° 0 mm 1 m/S 737 mmHg 71%
    12:00 +20°C° 0 mm 2 m/S 737 mmHg 66%
    13:00 +21°C° 0 mm 1 m/S 737 mmHg 64%
    14:00 +21°C° 0 mm 1 m/S 736 mmHg 62%
    15:00 +21°C° 0 mm 1 m/S 736 mmHg 61%
    16:00 +19°C° 0 mm 1 m/S 736 mmHg 67%
    17:00 +15°C° 0 mm 0 m/S 736 mmHg 74%
    18:00 +13°C° 0 mm 0 m/S 735 mmHg 80%
    19:00 +13°C° 0 mm 0 m/S 735 mmHg 82%
    20:00 +12°C° 0 mm 0 m/S 735 mmHg 84%
    21:00 +12°C° 0 mm 0 m/S 735 mmHg 85%
    22:00 +12°C° 0 mm 0 m/S 735 mmHg 86%
    23:00 +11°C° 0 mm 0 m/S 734 mmHg 87%

    30 September, Samstag

    Zeit Temperatur Niederschläge Wind Luftdruck Luftfeuchtigkeit
    00:00 +11°C° 0 mm 0 m/S 734 mmHg 88%
    01:00 +11°C° 0 mm 0 m/S 734 mmHg 88%
    02:00 +12°C° 0 mm 1 m/S 734 mmHg 89%
    03:00 +12°C° 0 mm 1 m/S 733 mmHg 89%
    04:00 +12°C° 0 mm 1 m/S 733 mmHg 90%
    05:00 +12°C° 0 mm 1 m/S 733 mmHg 90%
    06:00 +12°C° 0 mm 1 m/S 733 mmHg 90%
    07:00 +13°C° 0 mm 1 m/S 733 mmHg 87%
    08:00 +15°C° 0 mm 2 m/S 733 mmHg 83%
    09:00 +17°C° 0 mm 2 m/S 733 mmHg 80%
    10:00 +17°C° 0,1 mm 2 m/S 733 mmHg 79%
    11:00 +18°C° 0,1 mm 2 m/S 733 mmHg 77%
    12:00 +19°C° 0,1 mm 3 m/S 732 mmHg 76%
    13:00 +18°C° 0,9 mm 3 m/S 732 mmHg 80%
    14:00 +17°C° 0,9 mm 3 m/S 732 mmHg 84%
    15:00 +17°C° 0,9 mm 2 m/S 732 mmHg 88%
    16:00 +16°C° 1,8 mm 3 m/S 732 mmHg 90%
    17:00 +14°C° 1,8 mm 3 m/S 732 mmHg 93%
    18:00 +13°C° 1,8 mm 3 m/S 732 mmHg 95%
    19:00 +13°C° 1,5 mm 3 m/S 732 mmHg 96%
    20:00 +13°C° 1,5 mm 3 m/S 733 mmHg 96%
    21:00 +12°C° 1,5 mm 3 m/S 733 mmHg 96%
    22:00 +12°C° 0,5 mm 3 m/S 733 mmHg 96%
    23:00 +12°C° 0,5 mm 3 m/S 733 mmHg 96%

    1 Oktober, Sonntag

    Zeit Temperatur Niederschläge Wind Luftdruck Luftfeuchtigkeit
    00:00 +13°C° 0,5 mm 2 m/S 733 mmHg 96%
    01:00 +11°C° 0,1 mm 3 m/S 733 mmHg 96%
    02:00 +11°C° 0,1 mm 3 m/S 733 mmHg 96%
    03:00 +11°C° 0,1 mm 3 m/S 733 mmHg 96%
    04:00 +11°C° 0 mm 3 m/S 734 mmHg 96%
    05:00 +11°C° 0 mm 3 m/S 734 mmHg 96%
    06:00 +10°C° 0 mm 3 m/S 734 mmHg 95%
    07:00 +11°C° 0 mm 3 m/S 734 mmHg 93%
    08:00 +11°C° 0 mm 3 m/S 735 mmHg 91%
    09:00 +12°C° 0 mm 3 m/S 735 mmHg 89%
    10:00 +12°C° 0 mm 3 m/S 735 mmHg 87%
    11:00 +13°C° 0 mm 3 m/S 735 mmHg 84%
    12:00 +15°C° 0 mm 2 m/S 735 mmHg 81%
    13:00 +15°C° 0 mm 2 m/S 735 mmHg 81%
    14:00 +15°C° 0 mm 2 m/S 735 mmHg 81%
    15:00 +15°C° 0 mm 2 m/S 735 mmHg 80%
    16:00 +14°C° 0 mm 1 m/S 735 mmHg 83%
    17:00 +13°C° 0 mm 1 m/S 735 mmHg 86%
    18:00 +12°C° 0 mm 1 m/S 735 mmHg 89%
    19:00 +12°C° 0 mm 1 m/S 735 mmHg 89%
    20:00 +10°C° 0 mm 0 m/S 735 mmHg 89%
    21:00 +10°C° 0 mm 0 m/S 735 mmHg 89%
    22:00 +10°C° 0 mm 0 m/S 735 mmHg 90%
    23:00 +9°C° 0 mm 0 m/S 735 mmHg 91%
    Mehr zeigen